RH
23 25 30 33 37 36 36 39 40 34 61 43 45 40 43 44 46 54 60 62 65 60 56 64 100 97 100 98 98 100 100 100 100 100 100 100 100 100 100 100 45 96 98 71
20 23 26 28 32 35 35 39 45 46 59 54 56 50 60 62 55 78 68 70 76 69 63 82 100 66 84 75 100 100 100 100 100 100 100 100 80 100 100 100 58 42 100 97
22 25 24 24 27 30 33 35 39 42 51 69 65 60 67 74 66 75 82 91 98 91 79 68 56 47 50 82 100 100 100 100 100 100 94 95 100 100 100 100 97 46 79 100
22 25 23 24 25 26 30 34 38 36 40 58 52 57 55 61 59 67 74 86 82 77 79 59 50 60 97 100 66 100 100 100 100 100 100 100 100 100 100 100 96 77 89 100
32 28 27 27 30 30 31 29 31 32 38 41 43 42 58 62 70 80 90 87 76 63 59 52 48 52 61 80 90 90 100 100 77 100 100 100 91 100 100 100 100 67 99 100
29 29 30 33 32 28 29 27 28 29 34 32 36 35 44 51 57 61 60 55 52 54 51 46 86 100 99 100 100 100 100 88 100 98 100 100 82 100 100 100 100 100 100 100
28 27 34 36 35 35 32 31 30 29 30 32 47 40 46 47 42 42 49 50 54 55 49 50 47 98 100 100 100 100 100 84 100 100 100 100 90 100 100 100 100 100 76 98
21 30 36 60 49 49 59 56 42 51 44 50 51 32 37 36 42 45 41 45 52 67 78 59 49 50 88 100 100 100 86 100 100 100 100 100 86 100 100 100 100 100 100 100
15 27 37 46 64 56 51 45 100 80 58 33 38 38 46 58 61 64 61 69 76 79 86 77 67 64 62 80 99 98 100 97 99 100 100 100 99 92 99 100 100 100 100 100
13 20 37 50 52 54 55 87 76 55 52 60 79 80 88 100 97 83 98 88 88 98 99 96 90 84 75 73 74 81 81 100 98 99 95 90 100 100 100 100 100 100 100 100
13 15 33 38 51 83 95 87 66 82 64 68 92 91 99 100 100 94 95 94 90 89 91 91 98 100 99 98 98 96 98 100 100 100 100 100 100 100 100 100 100 100 100 100
13 13 17 35 85 91 69 76 85 81 82 76 65 75 96 100 100 83 85 83 79 74 80 96 100 98 100 100 100 100 100 99 100 100 100 100 100 100 100 100 100 100 100 100
13 12 14 26 58 93 98 91 81 88 92 77 65 94 98 100 100 100 84 82 80 80 80 75 77 87 91 95 98 100 100 100 100 100 100 100 100 100 100 100 100 100 100 100
12 12 13 15 31 78 91 100 100 96 92 97 80 100 100 98 100 100 82 76 81 88 94 97 99 94 85 88 89 90 97 100 100 100 100 100 100 100 100 100 100 100 100 100
11 11 12 16 22 50 88 100 100 96 90 92 100 95 100 100 100 100 87 75 76 73 93 95 97 100 100 100 100 100 98 96 96 96 97 99 100 100 100 100 100 100 100 100
11 11 12 16 19 25 63 100 100 98 94 90 99 99 100 100 100 100 100 89 78 71 68 63 65 64 63 66 66 69 70 73 86 100 100 100 100 100 100 100 100 100 100 96
10 10 11 12 19 24 25 69 100 100 100 100 97 100 100 100 100 100 100 99 94 86 80 68 63 65 62 60 61 62 61 64 71 80 85 91 100 100 100 100 100 100 98 98
10 10 9 11 15 15 29 64 66 99 100 100 100 100 100 100 100 100 100 100 100 100 93 88 78 66 59 57 56 59 66 60 60 69 80 87 93 99 100 100 99 98 98 98
9 9 9 9 12 14 22 55 73 72 99 100 100 100 100 100 100 100 100 100 100 100 100 100 97 84 73 68 63 59 62 73 85 89 95 96 98 100 100 100 100 100 100 100
8 8 7 8 10 11 22 44 63 76 73 93 100 100 100 100 100 100 100 100 100 100 100 100 100 100 94 90 83 80 79 82 83 88 92 94 94 95 98 99 99 97 93 93
7 7 7 9 8 9 17 29 45 61 85 88 90 100 100 100 100 100 100 100 100 100 100 100 100 100 100 100 100 100 100 98 98 97 93 94 96 96 92 89 84 84 88 91
6 5 6 7 7 9 15 21 26 48 82 100 99 90 93 100 100 100 100 100 100 100 100 100 100 100 100 100 100 100 100 100 100 100 100 100 100 99 100 99 97 91 84 85
6 5 6 7 8 10 14 18 23 34 54 81 100 100 100 100 100 100 100 100 100 100 100 100 100 100 100 100 100 100 100 100 100 100 100 100 100 100 100 96 94 96 94 91
6 6 6 6 8 10 14 17 20 24 35 58 82 100 100 100 100 100 100 100 100 99 100 100 100 100 100 100 100 100 100 99 98 97 97 98 96 90 83 80 78 74 69 64
6 6 6 7 8 10 14 18 20 23 28 43 69 88 100 100 100 100 100 100 100 100 100 99 100 100 100 97 93 90 91 95 98 92 84 78 76 73 68 64 61 57 53 51
6 7 7 7 8 9 13 17 20 23 29 37 55 74 91 100 100 100 100 100 100 100 100 100 100 100 100 100 100 99 98 93 89 86 83 83 81 79 77 75 68 60 57 54
Wind_Speed
72 76 78 85 90 94 96 98 96 92 89 91 88 82 83 82 81 78 74 73 73 72 69 64 65 65 69 69 69 69 67 66 64 61 58 62 53 53 52 53 51 54 52 45
59 61 71 80 87 93 93 93 94 88 89 92 88 82 80 79 77 76 75 73 71 67 66 64 70 67 68 71 68 75 72 71 69 63 62 64 56 55 57 58 52 55 55 50
48 58 68 74 79 84 85 86 91 89 91 92 87 83 79 81 79 76 77 76 75 75 72 73 71 67 64 67 71 74 69 72 72 67 64 64 60 61 62 62 55 55 57 55
44 51 58 61 62 72 77 82 90 86 87 90 88 81 79 82 81 78 77 77 77 73 74 71 66 63 67 68 68 73 72 72 68 69 68 66 64 64 66 63 60 61 62 56
40 49 52 55 60 67 69 80 79 76 84 87 83 81 82 79 78 80 80 80 80 77 72 72 68 68 68 66 66 69 70 70 67 71 69 66 62 68 72 65 65 63 63 60
42 45 49 53 58 60 66 66 69 70 77 74 77 79 78 78 82 82 83 81 80 77 75 67 70 70 69 67 69 68 71 67 71 69 71 68 66 67 71 68 70 67 65 66
44 45 50 55 58 59 62 61 64 66 67 64 73 74 71 76 76 77 77 77 74 71 70 70 71 76 76 71 71 73 77 72 73 72 72 70 72 71 69 69 71 66 69 70
39 46 51 54 58 62 58 59 64 65 66 68 74 65 64 68 70 73 73 71 69 69 69 72 72 74 80 83 79 76 73 74 76 75 74 73 71 72 72 73 72 71 73 72
39 44 53 56 60 64 60 59 59 67 67 69 65 61 61 64 67 68 67 67 67 68 71 72 71 72 74 79 85 86 82 77 77 80 78 75 75 77 78 77 76 76 76 75
40 43 54 58 64 63 62 66 68 66 63 60 56 59 59 64 67 68 68 68 66 64 63 65 67 69 72 72 74 76 78 78 78 78 81 81 81 82 82 84 83 78 78 76
46 46 54 59 60 65 68 69 69 69 64 65 61 59 60 63 68 66 66 66 66 65 64 64 65 66 65 65 67 68 71 74 77 77 76 77 80 82 84 86 85 85 82 79
52 48 50 57 63 68 70 71 73 70 66 66 69 64 65 65 69 68 68 67 68 68 66 65 67 65 65 65 66 67 69 69 72 73 74 74 76 79 81 83 84 86 85 85
57 51 50 58 66 69 72 70 72 69 73 69 69 58 66 66 68 69 68 67 65 63 63 66 69 68 69 69 70 69 70 71 72 73 73 75 76 77 80 82 84 86 87 87
63 52 53 58 66 75 76 74 73 73 74 67 67 66 67 67 67 70 69 65 63 62 60 61 63 65 67 68 71 73 74 74 75 76 76 78 79 78 78 80 84 87 88 89
67 52 54 59 66 74 79 77 76 76 69 72 68 69 70 69 70 70 69 65 64 63 61 60 58 59 61 64 67 70 73 76 80 82 83 84 86 87 86 84 83 84 86 89
68 52 53 61 68 73 79 82 80 78 75 70 70 70 70 71 71 70 69 68 66 65 65 64 64 65 67 69 72 75 76 79 82 83 83 84 84 86 88 91 91 91 92 92
68 57 55 57 70 76 74 81 83 82 78 75 74 68 72 71 70 70 70 69 68 66 66 65 65 64 64 65 67 67 75 80 84 86 88 89 90 91 92 93 94 96 97 98
63 58 57 56 69 75 75 83 84 84 82 80 76 74 72 71 71 70 68 68 68 68 67 66 66 65 64 63 62 61 61 65 74 81 86 90 92 94 95 97 98 99 101 102
59 58 54 56 66 69 75 84 87 84 86 84 80 76 74 73 72 71 70 69 69 68 67 66 66 66 65 64 63 61 60 58 60 65 71 77 83 87 90 93 95 97 99 100
58 55 57 55 59 64 73 84 88 90 85 84 83 80 78 78 76 72 72 71 69 68 68 67 67 66 66 65 65 64 63 63 63 64 67 70 74 79 83 87 89 92 95 99
58 54 52 53 56 58 70 83 87 88 86 88 88 87 85 81 78 76 76 74 73 72 70 69 69 68 68 69 68 68 69 69 70 71 72 74 77 80 82 85 87 90 93 96
53 50 49 52 53 51 64 79 84 85 90 92 90 86 85 85 85 83 81 79 78 76 73 72 72 72 72 72 73 74 74 75 76 78 80 82 84 87 89 92 95 97 99 102
48 47 45 46 47 50 59 72 82 84 88 90 90 91 88 86 83 82 81 79 78 77 77 76 76 77 77 77 77 77 79 80 82 83 86 89 91 94 97 100 102 105 108 110
43 42 40 41 42 46 54 65 76 81 83 87 88 90 90 88 88 84 81 79 78 79 78 79 80 81 81 81 82 84 85 86 88 90 92 94 97 100 102 104 107 110 114 117
38 36 37 36 39 43 51 59 69 77 80 83 85 86 86 86 87 90 88 85 84 84 82 82 81 82 83 85 86 87 88 89 91 94 97 100 103 105 108 111 114 117 120 123
34 31 32 35 37 39 46 53 62 70 76 80 81 83 82 80 81 81 83 84 85 88 89 88 88 87 88 89 91 93 94 97 100 103 104 106 109 111 114 117 121 124 125 126
Wind_Direction
235 236 237 236 236 236 237 239 242 242 245 244 243 243 245 246 249 252 255 255 258 256 255 251 242 244 243 247 245 248 244 247 247 251 260 251 263 255 259 258 263 267 259 266
237 237 236 235 235 237 238 239 242 241 243 245 245 244 246 248 249 253 254 257 257 257 260 249 241 248 249 249 240 239 248 247 247 254 251 252 256 253 259 256 260 265 264 262
238 234 235 236 237 237 239 240 242 240 241 245 245 246 245 248 250 251 254 254 255 256 253 254 254 255 253 245 241 243 245 242 250 246 249 249 250 254 258 256 257 264 264 259
242 237 239 240 242 243 242 240 240 239 242 244 245 245 246 250 250 251 254 255 255 254 255 252 252 251 245 242 248 241 245 246 246 246 249 248 249 254 257 254 254 262 259 261
248 243 237 236 235 236 236 239 242 241 243 244 247 246 247 248 250 250 250 251 254 253 252 252 249 246 245 245 243 243 242 244 251 245 246 246 251 253 256 254 251 258 262 261
251 247 241 237 239 240 240 242 242 241 242 244 245 246 246 247 247 247 250 251 250 249 251 247 241 244 246 244 241 241 240 247 245 243 244 244 251 251 256 253 251 256 256 258
258 248 243 241 237 238 239 239 240 241 242 242 242 240 238 241 244 244 241 242 244 246 245 242 239 238 238 240 241 241 244 246 244 244 243 247 249 251 253 255 254 253 257 259
266 253 247 242 241 236 232 234 234 235 235 234 236 237 239 240 240 242 242 242 242 241 242 244 242 240 240 239 240 242 243 243 244 245 245 248 247 249 252 253 254 256 256 256
280 257 246 245 242 243 239 236 236 236 236 237 239 239 237 238 236 239 239 240 241 241 242 244 243 242 243 243 244 245 245 244 245 245 246 247 249 251 253 253 253 255 256 256
295 265 250 243 244 244 242 234 236 240 236 237 236 235 232 234 237 236 237 240 240 241 245 246 246 247 246 245 245 246 246 246 246 247 250 252 252 252 252 252 253 253 253 255
303 274 254 246 244 243 240 240 239 239 236 233 229 231 231 235 237 238 239 239 241 241 243 244 243 244 245 246 246 246 246 246 246 246 248 249 250 250 251 252 254 256 256 255
307 280 262 251 239 241 243 240 238 239 240 236 232 228 231 234 241 240 241 241 241 241 241 242 243 243 243 244 245 245 246 246 247 248 248 249 251 252 252 253 254 256 256 258
309 284 263 250 242 239 242 242 241 236 239 238 236 231 235 236 241 243 242 243 244 245 245 245 245 244 245 244 245 246 248 249 249 249 250 252 253 254 254 254 255 255 256 257
309 289 267 254 243 236 236 239 241 239 236 237 235 235 240 238 241 244 244 244 244 243 244 245 244 245 247 248 249 250 250 249 249 250 251 252 253 255 256 255 255 255 256 257
309 288 266 253 246 240 236 235 239 242 239 236 236 235 236 239 240 245 248 246 245 245 245 246 246 246 247 248 250 250 250 250 250 251 252 253 253 254 255 256 257 257 257 258
306 286 264 249 245 242 236 233 234 237 239 239 236 237 237 241 243 245 248 251 250 250 250 249 249 250 251 252 254 253 254 253 252 251 252 253 254 255 256 257 258 259 260 261
305 286 263 249 243 241 240 233 231 232 235 237 237 237 239 239 243 246 249 252 254 255 255 255 253 252 254 256 255 256 253 252 252 252 253 254 255 256 257 257 258 260 261 262
301 285 269 249 242 241 238 238 234 229 231 234 236 236 238 240 243 245 248 251 252 254 256 256 257 259 259 259 259 261 261 259 256 254 254 255 256 257 258 259 260 261 262 263
297 281 269 254 242 240 235 236 237 233 228 230 232 235 237 239 240 242 244 246 249 253 255 256 259 261 264 266 264 264 265 264 264 262 261 260 260 260 261 261 263 264 264 265
293 279 271 259 247 240 232 233 234 236 233 228 229 231 235 236 239 240 243 245 247 250 253 256 258 260 264 265 266 266 267 267 267 267 266 266 265 264 264 264 263 264 265 266
292 281 271 259 252 241 231 232 233 233 233 235 230 228 230 234 236 237 240 242 245 249 253 254 256 259 261 262 262 264 265 266 267 268 268 269 269 269 269 269 270 270 270 271
290 282 270 260 254 242 233 231 233 232 232 233 235 234 231 232 234 236 238 242 244 245 246 251 253 255 256 257 258 259 261 263 265 267 268 269 270 270 270 270 271 272 272 273
289 280 268 258 252 241 233 230 233 232 232 232 233 234 236 237 237 237 238 241 244 246 247 249 250 252 253 255 256 259 260 262 263 264 265 267 268 269 270 270 271 272 272 272
287 277 267 255 247 239 234 231 231 233 232 233 232 233 235 236 237 239 242 245 248 250 250 251 252 254 255 256 257 259 260 262 264 266 267 268 268 269 271 272 272 273 274 275
289 276 262 251 242 235 230 229 230 232 233 233 234 234 234 236 237 239 242 246 247 249 252 254 254 255 257 260 262 264 265 267 268 270 271 273 274 275 276 277 278 278 279 279
284 273 261 250 240 232 228 227 228 230 231 233 234 235 234 235 237 240 241 243 245 246 248 251 253 255 257 260 262 265 267 268 270 272 274 275 276 277 278 279 280 281 281 282